TimeEST,TemperatureF,Dew PointF,Humidity,Sea Level PressureIn,VisibilityMPH,Wind Direction,Wind SpeedMPH,Gust SpeedMPH,PrecipitationIn,Events,Conditions,WindDirDegrees,DateUTC
12:47 AM,44.6,37.4,76,30.18,7.0,NE,3.5,-,N/A,,Overcast,50,2012-12-26 05:47:00
12:54 AM,45.0,37.9,76,30.18,7.0,Calm,Calm,-,N/A,,Overcast,0,2012-12-26 05:54:00
1:18 AM,44.6,39.2,81,30.17,6.0,Variable,3.5,-,N/A,,Haze,0,2012-12-26 06:18:00
2:01 AM,42.8,37.4,81,30.13,5.0,Variable,4.6,-,N/A,,Haze,0,2012-12-26 07:01:00
2:54 AM,43.0,36.0,76,30.14,5.0,Calm,Calm,-,N/A,,Haze,0,2012-12-26 07:54:00
3:54 AM,42.1,34.0,73,30.12,7.0,NE,4.6,-,N/A,,Overcast,50,2012-12-26 08:54:00
4:54 AM,42.1,36.0,79,30.11,6.0,Calm,Calm,-,0.00,Rain,Light Rain,0,2012-12-26 09:54:00
5:54 AM,41.0,37.9,89,30.07,3.0,Variable,4.6,-,0.03,Rain,Light Rain,0,2012-12-26 10:54:00
6:45 AM,41.0,37.4,87,30.05,4.0,Variable,3.5,-,0.01,Rain,Light Rain,0,2012-12-26 11:45:00
6:54 AM,41.0,37.9,89,30.05,3.0,Variable,3.5,-,0.01,Rain,Light Rain,0,2012-12-26 11:54:00
7:19 AM,39.2,37.4,93,30.01,2.5,Variable,5.8,-,0.00,Rain,Light Rain,0,2012-12-26 12:19:00
7:28 AM,41.0,37.4,87,30.01,3.0,Variable,4.6,-,0.00,,Overcast,0,2012-12-26 12:28:00
7:54 AM,41.0,37.9,89,29.98,3.0,Variable,3.5,-,0.01,,Overcast,0,2012-12-26 12:54:00
8:09 AM,41.0,39.2,93,29.95,2.0,Variable,4.6,-,N/A,,Overcast,0,2012-12-26 13:09:00
8:35 AM,42.8,39.2,87,29.95,1.5,Variable,4.6,-,0.00,Rain,Light Rain,0,2012-12-26 13:35:00
8:54 AM,42.1,39.9,92,29.94,1.2,ENE,3.5,-,0.03,Rain,Light Rain,70,2012-12-26 13:54:00
9:54 AM,43.0,41.0,93,29.88,1.0,East,4.6,-,0.10,Rain,Light Rain,80,2012-12-26 14:54:00
10:16 AM,44.6,42.8,93,29.85,3.0,Variable,6.9,-,0.02,Rain,Light Rain,0,2012-12-26 15:16:00
10:25 AM,44.6,42.8,93,29.84,1.8,East,4.6,-,0.03,Rain,Light Rain,100,2012-12-26 15:25:00
10:54 AM,46.9,44.1,90,29.81,1.0,Variable,4.6,-,0.10,Rain,Rain,0,2012-12-26 15:54:00
11:14 AM,48.2,44.6,87,29.80,2.5,Variable,3.5,-,0.03,Rain,Light Rain,0,2012-12-26 16:14:00
11:22 AM,48.2,44.6,87,29.77,1.5,East,6.9,-,0.04,Rain,Light Rain,90,2012-12-26 16:22:00
11:54 AM,48.9,46.0,90,29.73,2.5,Calm,Calm,-,0.11,Rain,Light Rain,0,2012-12-26 16:54:00
12:02 PM,48.2,46.4,93,29.71,4.0,Variable,6.9,-,0.00,Rain,Light Rain,0,2012-12-26 17:02:00
12:20 PM,50.0,46.4,87,29.69,1.8,Variable,6.9,-,0.01,Rain,Light Rain,0,2012-12-26 17:20:00
12:32 PM,50.0,46.4,87,29.68,0.8,Variable,4.6,-,0.08,Rain,Rain,0,2012-12-26 17:32:00
12:54 PM,50.0,48.0,93,29.67,0.8,Calm,Calm,-,0.27,Rain,Rain,0,2012-12-26 17:54:00
1:32 PM,50.0,48.2,94,29.59,1.2,Variable,3.5,-,0.21,Rain,Light Rain,0,2012-12-26 18:32:00
1:45 PM,51.8,48.2,88,29.57,2.5,Calm,Calm,-,0.26,Rain,Light Rain,0,2012-12-26 18:45:00
1:47 PM,51.8,48.2,88,29.57,3.0,Calm,Calm,-,0.26,Rain,Light Rain,0,2012-12-26 18:47:00
1:54 PM,51.1,48.9,92,29.57,3.0,Calm,Calm,-,0.26,Rain,Light Rain,0,2012-12-26 18:54:00
2:13 PM,51.8,48.2,88,29.47,2.5,East,6.9,-,0.01,Rain,Light Rain,90,2012-12-26 19:13:00
2:21 PM,51.8,50.0,94,29.48,1.5,East,6.9,-,0.03,Rain,Light Rain,100,2012-12-26 19:21:00
2:39 PM,53.6,51.8,94,29.49,3.0,South,4.6,-,0.07,Rain,Light Rain,180,2012-12-26 19:39:00
2:46 PM,53.6,53.6,100,29.48,2.5,Variable,4.6,-,0.08,Rain,Light Rain,0,2012-12-26 19:46:00
2:54 PM,55.0,53.1,93,29.48,2.0,Calm,Calm,-,0.10,Rain,Rain,0,2012-12-26 19:54:00
3:04 PM,55.4,53.6,94,29.47,1.2,Calm,Calm,-,0.03,Rain,Rain,0,2012-12-26 20:04:00
3:11 PM,55.4,53.6,94,29.45,0.5,Calm,Calm,-,0.08,Fog-Rain,Heavy Rain,0,2012-12-26 20:11:00
3:25 PM,57.2,55.4,94,29.41,0.2,SE,13.8,21.9,0.38,Fog-Rain,Rain,130,2012-12-26 20:25:00
3:30 PM,57.2,55.4,94,29.43,1.0,Variable,5.8,24.2,0.38,Rain,Light Rain,0,2012-12-26 20:30:00
3:38 PM,57.2,55.4,94,29.45,10.0,South,8.1,-,0.38,,Overcast,170,2012-12-26 20:38:00
3:54 PM,59.0,55.0,87,29.44,10.0,Variable,4.6,-,0.38,,Mostly Cloudy,0,2012-12-26 20:54:00
4:54 PM,57.0,54.0,89,29.41,10.0,SSW,4.6,-,0.01,,Clear,200,2012-12-26 21:54:00
5:32 PM,55.4,53.6,94,29.41,10.0,Calm,Calm,-,N/A,,Mostly Cloudy,0,2012-12-26 22:32:00
5:54 PM,57.0,55.0,93,29.42,10.0,Variable,3.5,-,N/A,,Overcast,0,2012-12-26 22:54:00
6:03 PM,57.2,53.6,88,29.40,10.0,WNW,3.5,-,N/A,,Overcast,290,2012-12-26 23:03:00
6:17 PM,55.4,53.6,94,29.40,10.0,WNW,6.9,-,N/A,,Overcast,290,2012-12-26 23:17:00
6:29 PM,53.6,53.6,100,29.40,7.0,West,6.9,-,N/A,,Overcast,280,2012-12-26 23:29:00
6:54 PM,50.0,48.9,96,29.41,2.5,WNW,8.1,-,0.00,Rain,Light Rain,300,2012-12-26 23:54:00
7:03 PM,48.2,46.4,93,29.41,3.0,WNW,5.8,-,0.00,Rain,Light Rain,300,2012-12-27 00:03:00
7:10 PM,48.2,46.4,93,29.41,1.8,WNW,4.6,-,0.00,,Overcast,290,2012-12-27 00:10:00
7:54 PM,46.9,45.0,93,29.43,1.0,Variable,5.8,-,0.00,,Overcast,0,2012-12-27 00:54:00
8:38 PM,44.6,44.6,100,29.44,0.8,West,4.6,-,N/A,,Overcast,270,2012-12-27 01:38:00
8:54 PM,45.0,44.1,97,29.45,0.5,WSW,5.8,-,N/A,Fog,Fog,250,2012-12-27 01:54:00
9:16 PM,44.6,42.8,93,29.45,1.0,WNW,5.8,-,N/A,,Overcast,290,2012-12-27 02:16:00
9:54 PM,41.0,39.9,96,29.48,2.5,West,9.2,-,N/A,,Overcast,270,2012-12-27 02:54:00
10:03 PM,41.0,39.2,93,29.48,4.0,West,10.4,-,N/A,,Overcast,270,2012-12-27 03:03:00
10:54 PM,39.0,37.0,93,29.51,4.0,West,11.5,19.6,N/A,,Overcast,280,2012-12-27 03:54:00
11:49 PM,39.2,37.4,93,29.52,6.0,West,12.7,17.3,N/A,,Overcast,270,2012-12-27 04:49:00
11:54 PM,39.0,37.0,93,29.53,5.0,West,8.1,17.3,N/A,,Overcast,270,2012-12-27 04:54:00